When you browse on this site, cookies collect data to enhance your experience and personalize the content and advertising you see.
Visit our Privacy Policy to learn more. By continuing to use the site, you agree to this use of cookies and data.
  • In United Kingdom
  • List of Countries
  • For 7 days
  • Water Temperature
  • Weather Map
  • Weather Widgets
  • user-avatar
    Login

    Hourly Weather Bridgetown

    Today, 20 September, Friday

    Time Temperature Precipitation Wind Pressure Humidity
    00:00 +29°C° 0 mm 3 mps 757 mmHg 80%
    01:00 +29°C° 0 mm 3 mps 757 mmHg 79%
    02:00 +29°C° 0 mm 3 mps 757 mmHg 79%
    03:00 +29°C° 0 mm 3 mps 757 mmHg 79%
    04:00 +29°C° 0 mm 3 mps 757 mmHg 79%
    05:00 +29°C° 0 mm 4 mps 757 mmHg 79%
    06:00 +29°C° 0 mm 4 mps 758 mmHg 76%
    07:00 +30°C° 0 mm 4 mps 758 mmHg 73%
    08:00 +30°C° 0 mm 4 mps 759 mmHg 70%
    09:00 +32°C° 0 mm 4 mps 759 mmHg 69%
    10:00 +32°C° 0 mm 4 mps 759 mmHg 68%
    11:00 +33°C° 0 mm 4 mps 759 mmHg 67%
    12:00 +32°C° 0 mm 4 mps 759 mmHg 69%
    13:00 +32°C° 0 mm 4 mps 758 mmHg 71%
    14:00 +32°C° 0 mm 5 mps 758 mmHg 73%
    15:00 +32°C° 0.1 mm 5 mps 758 mmHg 74%
    16:00 +32°C° 0.1 mm 5 mps 758 mmHg 75%
    17:00 +32°C° 0.1 mm 5 mps 758 mmHg 76%
    18:00 +32°C° 0.1 mm 5 mps 758 mmHg 77%
    19:00 +30°C° 0.1 mm 5 mps 759 mmHg 78%
    20:00 +30°C° 0.1 mm 5 mps 759 mmHg 79%
    21:00 +30°C° 0.1 mm 5 mps 759 mmHg 80%
    22:00 +30°C° 0.1 mm 6 mps 759 mmHg 80%
    23:00 +30°C° 0.1 mm 6 mps 759 mmHg 81%

    Tomorrow, 21 September, Saturday

    Time Temperature Precipitation Wind Pressure Humidity
    00:00 +30°C° 0 mm 6 mps 759 mmHg 80%
    01:00 +30°C° 0 mm 6 mps 758 mmHg 80%
    02:00 +30°C° 0 mm 6 mps 758 mmHg 79%
    03:00 +30°C° 0.3 mm 6 mps 758 mmHg 80%
    04:00 +30°C° 0.3 mm 5 mps 758 mmHg 81%
    05:00 +30°C° 0.3 mm 5 mps 758 mmHg 81%
    06:00 +30°C° 0.7 mm 6 mps 759 mmHg 79%
    07:00 +32°C° 0.7 mm 6 mps 759 mmHg 76%
    08:00 +32°C° 0.7 mm 7 mps 759 mmHg 74%
    09:00 +32°C° 0.1 mm 7 mps 759 mmHg 73%
    10:00 +33°C° 0.1 mm 7 mps 759 mmHg 72%
    11:00 +33°C° 0.1 mm 7 mps 759 mmHg 71%
    12:00 +33°C° 1.2 mm 7 mps 758 mmHg 70%
    13:00 +33°C° 1.2 mm 7 mps 758 mmHg 70%
    14:00 +33°C° 1.2 mm 8 mps 757 mmHg 70%
    15:00 +32°C° 1.6 mm 8 mps 757 mmHg 73%
    16:00 +32°C° 1.6 mm 8 mps 757 mmHg 76%
    17:00 +32°C° 1.6 mm 9 mps 757 mmHg 79%
    18:00 +31°C° 0.7 mm 9 mps 757 mmHg 79%
    19:00 +31°C° 0.7 mm 10 mps 758 mmHg 79%
    20:00 +31°C° 0.7 mm 10 mps 758 mmHg 79%
    21:00 +31°C° 0.9 mm 10 mps 758 mmHg 79%
    22:00 +31°C° 0.9 mm 10 mps 758 mmHg 79%
    23:00 +31°C° 0.9 mm 10 mps 758 mmHg 79%

    Day after tomorrow, 22 September, Sunday

    Time Temperature Precipitation Wind Pressure Humidity
    00:00 +31°C° 0.4 mm 10 mps 758 mmHg 79%
    01:00 +31°C° 0.4 mm 10 mps 757 mmHg 79%
    02:00 +31°C° 0.4 mm 10 mps 757 mmHg 79%
    03:00 +29°C° 0.2 mm 10 mps 757 mmHg 79%
    04:00 +29°C° 0.2 mm 11 mps 757 mmHg 79%
    05:00 +29°C° 0.2 mm 11 mps 757 mmHg 79%
    06:00 +29°C° 0.7 mm 12 mps 757 mmHg 80%
    07:00 +29°C° 0.7 mm 12 mps 758 mmHg 80%
    08:00 +29°C° 0.7 mm 13 mps 758 mmHg 80%
    09:00 +29°C° 0.5 mm 14 mps 758 mmHg 81%
    10:00 +28°C° 0.5 mm 14 mps 758 mmHg 83%
    11:00 +28°C° 0.5 mm 15 mps 758 mmHg 84%
    12:00 +28°C° 0.6 mm 15 mps 758 mmHg 83%
    13:00 +28°C° 0.6 mm 14 mps 758 mmHg 82%
    14:00 +28°C° 0.6 mm 14 mps 757 mmHg 80%
    15:00 +28°C° 0.4 mm 14 mps 757 mmHg 81%
    16:00 +28°C° 0.4 mm 13 mps 757 mmHg 82%
    17:00 +28°C° 0.4 mm 13 mps 757 mmHg 83%
    18:00 +28°C° 0.8 mm 13 mps 757 mmHg 83%
    19:00 +28°C° 0.8 mm 13 mps 757 mmHg 84%
    20:00 +28°C° 0.8 mm 12 mps 758 mmHg 85%
    21:00 +28°C° 2.8 mm 12 mps 758 mmHg 86%
    22:00 +28°C° 2.8 mm 12 mps 758 mmHg 86%
    23:00 +28°C° 2.8 mm 12 mps 758 mmHg 87%

    23 September, Monday

    Time Temperature Precipitation Wind Pressure Humidity
    00:00 +28°C° 2.8 mm 12 mps 758 mmHg 87%
    01:00 +28°C° 2.8 mm 11 mps 758 mmHg 86%
    02:00 +28°C° 2.8 mm 11 mps 757 mmHg 86%
    03:00 +28°C° 1.7 mm 11 mps 757 mmHg 85%
    04:00 +28°C° 1.7 mm 11 mps 757 mmHg 84%
    05:00 +28°C° 1.7 mm 10 mps 757 mmHg 84%
    06:00 +28°C° 0.5 mm 10 mps 758 mmHg 81%
    07:00 +29°C° 0.5 mm 10 mps 759 mmHg 79%
    08:00 +29°C° 0.5 mm 10 mps 759 mmHg 77%
    09:00 +29°C° 1.2 mm 10 mps 759 mmHg 77%
    10:00 +31°C° 1.2 mm 10 mps 759 mmHg 78%
    11:00 +31°C° 1.2 mm 10 mps 759 mmHg 78%
    12:00 +31°C° 1.1 mm 9 mps 759 mmHg 79%
    13:00 +29°C° 1.1 mm 9 mps 759 mmHg 80%
    14:00 +29°C° 1.1 mm 8 mps 759 mmHg 80%
    15:00 +29°C° 1.5 mm 9 mps 759 mmHg 82%
    16:00 +28°C° 1.5 mm 9 mps 759 mmHg 84%
    17:00 +28°C° 1.5 mm 10 mps 759 mmHg 86%
    18:00 +28°C° 0.8 mm 9 mps 759 mmHg 85%
    19:00 +28°C° 0.8 mm 9 mps 759 mmHg 84%
    20:00 +28°C° 0.8 mm 9 mps 759 mmHg 84%
    21:00 +28°C° 0 mm 8 mps 759 mmHg 81%
    22:00 +29°C° 0 mm 8 mps 759 mmHg 79%
    23:00 +29°C° 0 mm 8 mps 759 mmHg 77%

    24 September, Tuesday

    Time Temperature Precipitation Wind Pressure Humidity
    00:00 +29°C° 0 mm 7 mps 759 mmHg 77%
    01:00 +29°C° 0 mm 7 mps 758 mmHg 77%
    02:00 +29°C° 0 mm 6 mps 758 mmHg 77%
    03:00 +29°C° 0 mm 6 mps 758 mmHg 77%
    04:00 +28°C° 0 mm 5 mps 758 mmHg 78%
    05:00 +28°C° 0 mm 5 mps 758 mmHg 79%
    06:00 +29°C° 0 mm 5 mps 758 mmHg 77%
    07:00 +29°C° 0 mm 5 mps 759 mmHg 75%
    08:00 +30°C° 0 mm 5 mps 760 mmHg 73%
    09:00 +32°C° 0 mm 5 mps 760 mmHg 70%
    10:00 +32°C° 0 mm 5 mps 760 mmHg 68%
    11:00 +33°C° 0 mm 6 mps 760 mmHg 65%
    12:00 +33°C° 0.1 mm 6 mps 759 mmHg 67%
    13:00 +33°C° 0.1 mm 6 mps 759 mmHg 69%
    14:00 +33°C° 0.1 mm 6 mps 759 mmHg 71%
    15:00 +32°C° 0.2 mm 6 mps 759 mmHg 73%
    16:00 +32°C° 0.2 mm 6 mps 759 mmHg 75%
    17:00 +30°C° 0.2 mm 6 mps 759 mmHg 77%
    18:00 +30°C° 0 mm 6 mps 759 mmHg 79%
    19:00 +30°C° 0 mm 6 mps 759 mmHg 80%
    20:00 +30°C° 0 mm 6 mps 759 mmHg 81%
    21:00 +30°C° 0 mm 6 mps 760 mmHg 82%
    22:00 +30°C° 0 mm 6 mps 760 mmHg 82%
    23:00 +30°C° 0 mm 6 mps 760 mmHg 82%

    25 September, Wednesday

    Time Temperature Precipitation Wind Pressure Humidity
    00:00 +29°C° 0 mm 6 mps 759 mmHg 84%
    01:00 +29°C° 0 mm 6 mps 759 mmHg 85%
    02:00 +29°C° 0 mm 5 mps 758 mmHg 86%
    03:00 +29°C° 0 mm 5 mps 758 mmHg 86%
    04:00 +29°C° 0 mm 5 mps 759 mmHg 86%
    05:00 +29°C° 0 mm 5 mps 759 mmHg 86%
    06:00 +29°C° 0.1 mm 5 mps 759 mmHg 83%
    07:00 +30°C° 0.1 mm 6 mps 760 mmHg 81%
    08:00 +30°C° 0.1 mm 6 mps 760 mmHg 79%
    09:00 +32°C° 0 mm 6 mps 760 mmHg 78%
    10:00 +32°C° 0 mm 6 mps 760 mmHg 77%
    11:00 +32°C° 0 mm 5 mps 760 mmHg 76%
    12:00 +32°C° 0 mm 5 mps 760 mmHg 73%
    13:00 +32°C° 0 mm 4 mps 759 mmHg 70%
    14:00 +33°C° 0 mm 4 mps 759 mmHg 68%
    15:00 +31°C° 0 mm 3 mps 759 mmHg 69%
    16:00 +31°C° 0 mm 3 mps 758 mmHg 70%
    17:00 +30°C° 0 mm 3 mps 758 mmHg 71%
    18:00 +30°C° 0 mm 3 mps 759 mmHg 73%
    19:00 +30°C° 0 mm 3 mps 759 mmHg 75%
    20:00 +30°C° 0 mm 4 mps 760 mmHg 77%
    21:00 +29°C° 0 mm 4 mps 760 mmHg 78%
    22:00 +29°C° 0 mm 4 mps 760 mmHg 79%
    23:00 +29°C° 0 mm 4 mps 760 mmHg 80%
    Show more